TimeEDT,TemperatureF,Dew PointF,Humidity,Sea Level PressureIn,VisibilityMPH,Wind Direction,Wind SpeedMPH,Gust SpeedMPH,PrecipitationIn,Events,Conditions,WindDirDegrees,DateUTC
12:53 AM,50.0,37.0,61,30.27,10.0,North,10.4,-,N/A,,Clear,360,2013-03-28 04:53:00
1:53 AM,48.0,37.0,66,30.28,10.0,North,8.1,-,N/A,,Clear,360,2013-03-28 05:53:00
2:53 AM,46.9,37.0,68,30.26,10.0,North,10.4,-,N/A,,Clear,10,2013-03-28 06:53:00
3:53 AM,46.0,37.9,73,30.25,10.0,NNE,6.9,-,N/A,,Clear,30,2013-03-28 07:53:00
4:53 AM,45.0,37.9,76,30.24,10.0,NNE,6.9,-,N/A,,Clear,30,2013-03-28 08:53:00
5:53 AM,44.1,37.9,79,30.25,10.0,NNE,6.9,-,N/A,,Clear,30,2013-03-28 09:53:00
6:53 AM,44.1,37.9,79,30.25,10.0,NE,6.9,-,N/A,,Clear,40,2013-03-28 10:53:00
7:53 AM,44.1,39.0,82,30.26,10.0,NE,3.5,-,N/A,,Clear,40,2013-03-28 11:53:00
8:53 AM,51.1,41.0,68,30.29,10.0,NE,5.8,-,N/A,,Clear,40,2013-03-28 12:53:00
9:53 AM,57.0,39.9,53,30.31,10.0,NE,6.9,-,N/A,,Clear,40,2013-03-28 13:53:00
10:53 AM,62.1,32.0,32,30.31,10.0,ENE,9.2,-,N/A,,Clear,60,2013-03-28 14:53:00
11:53 AM,64.0,32.0,30,30.31,10.0,NNE,8.1,-,N/A,,Clear,20,2013-03-28 15:53:00
12:53 PM,66.9,30.9,26,30.29,10.0,North,6.9,-,N/A,,Clear,360,2013-03-28 16:53:00
1:53 PM,69.1,26.1,20,30.26,10.0,Variable,4.6,-,N/A,,Clear,0,2013-03-28 17:53:00
2:53 PM,73.0,28.0,19,30.23,10.0,Variable,5.8,-,N/A,,Clear,0,2013-03-28 18:53:00
3:53 PM,73.0,25.0,17,30.20,10.0,North,8.1,-,N/A,,Clear,10,2013-03-28 19:53:00
4:53 PM,75.0,25.0,16,30.19,10.0,North,8.1,-,N/A,,Clear,10,2013-03-28 20:53:00
5:53 PM,72.0,39.0,30,30.19,10.0,NW,12.7,19.6,N/A,,Clear,310,2013-03-28 21:53:00
6:08 PM,69.8,41.0,35,30.18,10.0,NW,13.8,-,N/A,,Clear,310,2013-03-28 22:08:00
6:53 PM,66.0,43.0,43,30.21,10.0,WNW,10.4,-,N/A,,Clear,300,2013-03-28 22:53:00
7:53 PM,63.0,43.0,48,30.23,10.0,NW,10.4,-,N/A,,Clear,320,2013-03-28 23:53:00
8:53 PM,61.0,45.0,56,30.24,10.0,NW,9.2,-,N/A,,Clear,320,2013-03-29 00:53:00
9:53 PM,59.0,46.9,64,30.26,10.0,Calm,Calm,-,N/A,,Clear,0,2013-03-29 01:53:00
10:53 PM,57.9,45.0,62,30.27,10.0,Calm,Calm,-,N/A,,Clear,0,2013-03-29 02:53:00
11:53 PM,57.9,37.9,47,30.28,10.0,NNE,8.1,-,N/A,,Clear,20,2013-03-29 03:53:00